Time,TemperatureF,DewpointF,PressureIn,WindDirection,WindDirectionDegrees,WindSpeedMPH,WindSpeedGustMPH,Humidity,HourlyPrecipIn,Conditions,Clouds,dailyrainin,SoftwareType,DateUTC
2013-05-05 00:00:00,59.9,-99.9,29.96,SSE,156,0.1,0.0,-999,0.00,,,0.00,homebrew,2013-05-05 07:00:00,
2013-05-05 00:05:00,59.5,-99.9,29.96,SW,234,0.0,1.0,-999,0.00,,,0.00,homebrew,2013-05-05 07:05:00,
2013-05-05 00:10:00,59.3,-99.9,29.96,NW,323,0.0,0.6,-999,0.00,,,0.00,homebrew,2013-05-05 07:10:00,
2013-05-05 00:15:00,59.1,-99.9,29.96,NW,323,0.0,0.0,-999,0.00,,,0.00,homebrew,2013-05-05 07:15:00,
2013-05-05 00:20:00,58.6,-99.9,29.96,NW,323,0.0,0.0,-999,0.00,,,0.00,homebrew,2013-05-05 07:20:00,
2013-05-05 00:25:00,58.2,-99.9,29.96,NW,323,0.0,0.0,-999,0.00,,,0.00,homebrew,2013-05-05 07:25:00,
2013-05-05 00:30:00,58.0,-99.9,29.96,NW,323,0.0,0.3,-999,0.00,,,0.00,homebrew,2013-05-05 07:30:00,
2013-05-05 00:35:00,57.6,-99.9,29.95,NW,323,0.0,0.0,-999,0.00,,,0.00,homebrew,2013-05-05 07:35:00,
2013-05-05 00:40:00,57.2,-99.9,29.95,NW,323,0.0,0.0,-999,0.00,,,0.00,homebrew,2013-05-05 07:40:00,
2013-05-05 00:45:00,57.1,-99.9,29.95,NW,319,0.1,0.0,-999,0.00,,,0.00,homebrew,2013-05-05 07:45:00,
2013-05-05 00:50:00,57.1,-99.9,29.95,NW,307,0.0,1.1,-999,0.00,,,0.00,homebrew,2013-05-05 07:50:00,
2013-05-05 00:55:00,57.0,-99.9,29.95,NW,307,0.0,0.0,-999,0.00,,,0.00,homebrew,2013-05-05 07:55:00,
2013-05-05 01:05:00,56.5,-99.9,29.95,NNE,28,0.1,1.9,-999,0.00,,,0.00,homebrew,2013-05-05 08:05:00,
2013-05-05 01:10:00,56.6,-99.9,29.95,NE,37,0.1,1.4,-999,0.00,,,0.00,homebrew,2013-05-05 08:10:00,
2013-05-05 01:15:00,56.4,-99.9,29.95,NE,47,0.0,0.9,-999,0.00,,,0.00,homebrew,2013-05-05 08:15:00,
2013-05-05 01:20:00,56.3,-99.9,29.95,NE,54,0.6,0.0,-999,0.00,,,0.00,homebrew,2013-05-05 08:20:00,
2013-05-05 01:25:00,56.3,-99.9,29.95,NE,54,1.7,2.6,-999,0.00,,,0.00,homebrew,2013-05-05 08:25:00,
2013-05-05 01:30:00,56.5,-99.9,29.95,ENE,68,0.8,4.7,-999,0.00,,,0.00,homebrew,2013-05-05 08:30:00,
2013-05-05 01:35:00,56.4,-99.9,29.95,ENE,73,1.1,2.7,-999,0.00,,,0.00,homebrew,2013-05-05 08:35:00,
2013-05-05 01:40:00,56.3,-99.9,29.95,ENE,69,1.5,3.5,-999,0.00,,,0.00,homebrew,2013-05-05 08:40:00,
2013-05-05 01:45:00,56.1,-99.9,29.94,ENE,63,2.2,3.5,-999,0.00,,,0.00,homebrew,2013-05-05 08:45:00,
2013-05-05 01:50:00,56.1,-99.9,29.95,ENE,67,2.8,4.8,-999,0.00,,,0.00,homebrew,2013-05-05 08:50:00,
2013-05-05 01:55:00,56.1,-99.9,29.95,ENE,63,2.0,6.5,-999,0.00,,,0.00,homebrew,2013-05-05 08:55:00,
2013-05-05 02:00:00,55.9,-99.9,29.95,SE,130,1.8,4.5,-999,0.00,,,0.00,homebrew,2013-05-05 09:00:00,
2013-05-05 02:10:00,55.5,-99.9,29.95,ESE,102,1.4,4.7,-999,0.00,,,0.00,homebrew,2013-05-05 09:10:00,
2013-05-05 02:15:00,55.1,-99.9,29.95,NE,53,2.0,2.7,-999,0.00,,,0.00,homebrew,2013-05-05 09:15:00,
2013-05-05 02:20:00,55.0,-99.9,29.95,NNE,33,1.8,3.7,-999,0.00,,,0.00,homebrew,2013-05-05 09:20:00,
2013-05-05 02:25:00,55.0,-99.9,29.95,NE,40,1.5,2.8,-999,0.00,,,0.00,homebrew,2013-05-05 09:25:00,
2013-05-05 02:30:00,54.7,-99.9,29.95,NNE,22,0.5,3.1,-999,0.00,,,0.00,homebrew,2013-05-05 09:30:00,
2013-05-05 02:35:00,54.5,-99.9,29.95,NNE,26,1.0,1.6,-999,0.00,,,0.00,homebrew,2013-05-05 09:35:00,
2013-05-05 02:40:00,54.3,-99.9,29.95,ENE,68,2.8,2.8,-999,0.00,,,0.00,homebrew,2013-05-05 09:40:00,
2013-05-05 02:45:00,54.3,-99.9,29.95,South,189,1.9,5.3,-999,0.00,,,0.00,homebrew,2013-05-05 09:45:00,
2013-05-05 02:50:00,54.0,-99.9,29.95,ENE,65,1.1,4.0,-999,0.00,,,0.00,homebrew,2013-05-05 09:50:00,
2013-05-05 03:00:00,52.0,-99.9,29.95,East,79,4.1,4.2,-999,0.00,,,0.00,homebrew,2013-05-05 10:00:00,
2013-05-05 03:05:00,52.4,-99.9,29.95,East,80,4.1,5.5,-999,0.00,,,0.00,homebrew,2013-05-05 10:05:00,
2013-05-05 03:10:00,52.6,-99.9,29.94,East,84,3.8,5.3,-999,0.00,,,0.00,homebrew,2013-05-05 10:10:00,
2013-05-05 03:15:00,52.7,-99.9,29.94,ENE,60,1.7,4.8,-999,0.00,,,0.00,homebrew,2013-05-05 10:15:00,
2013-05-05 03:20:00,53.1,-99.9,29.94,ENE,59,1.5,4.0,-999,0.00,,,0.00,homebrew,2013-05-05 10:20:00,
2013-05-05 03:25:00,53.7,-99.9,29.94,East,88,2.4,3.7,-999,0.00,,,0.00,homebrew,2013-05-05 10:25:00,
2013-05-05 03:30:00,53.9,-99.9,29.94,ENE,76,2.0,4.7,-999,0.00,,,0.00,homebrew,2013-05-05 10:30:00,
2013-05-05 03:35:00,53.7,-99.9,29.94,East,85,4.0,4.0,-999,0.00,,,0.00,homebrew,2013-05-05 10:35:00,
2013-05-05 03:40:00,53.6,-99.9,29.94,East,79,3.8,5.4,-999,0.00,,,0.00,homebrew,2013-05-05 10:40:00,
2013-05-05 03:50:00,53.8,-99.9,29.94,NE,54,3.0,4.8,-999,0.00,,,0.00,homebrew,2013-05-05 10:50:00,
2013-05-05 03:55:00,53.9,-99.9,29.94,ENE,66,3.7,5.2,-999,0.00,,,0.00,homebrew,2013-05-05 10:55:00,
2013-05-05 04:00:00,54.1,-99.9,29.94,ENE,71,3.0,7.6,-999,0.00,,,0.00,homebrew,2013-05-05 11:00:00,
2013-05-05 04:05:00,54.2,-99.9,29.94,ENE,57,2.4,5.4,-999,0.00,,,0.00,homebrew,2013-05-05 11:05:00,
2013-05-05 04:10:00,53.9,-99.9,29.93,NE,44,2.2,3.6,-999,0.00,,,0.00,homebrew,2013-05-05 11:10:00,
2013-05-05 04:15:00,53.8,-99.9,29.94,NE,56,1.9,3.4,-999,0.00,,,0.00,homebrew,2013-05-05 11:15:00,
2013-05-05 04:20:00,53.7,-99.9,29.94,NE,51,2.0,3.9,-999,0.00,,,0.00,homebrew,2013-05-05 11:20:00,
2013-05-05 04:25:00,53.5,-99.9,29.94,ENE,58,2.1,5.2,-999,0.00,,,0.00,homebrew,2013-05-05 11:25:00,
2013-05-05 04:35:00,53.3,-99.9,29.93,NE,43,2.3,5.7,-999,0.00,,,0.00,homebrew,2013-05-05 11:35:00,
2013-05-05 04:40:00,53.1,-99.9,29.93,NE,40,2.3,4.0,-999,0.00,,,0.00,homebrew,2013-05-05 11:40:00,
2013-05-05 04:45:00,52.9,-99.9,29.93,ENE,60,2.4,5.3,-999,0.00,,,0.00,homebrew,2013-05-05 11:45:00,
2013-05-05 04:50:00,52.7,-99.9,29.93,ESE,117,2.6,5.3,-999,0.00,,,0.00,homebrew,2013-05-05 11:50:00,
2013-05-05 04:55:00,52.6,-99.9,29.93,East,98,1.8,6.0,-999,0.00,,,0.00,homebrew,2013-05-05 11:55:00,
2013-05-05 05:00:00,52.5,-99.9,29.93,ESE,103,2.0,4.2,-999,0.00,,,0.00,homebrew,2013-05-05 12:00:00,
2013-05-05 05:05:00,52.4,-99.9,29.93,SSW,192,1.4,4.0,-999,0.00,,,0.00,homebrew,2013-05-05 12:05:00,
2013-05-05 05:10:00,52.2,-99.9,29.93,NE,45,1.0,4.7,-999,0.00,,,0.00,homebrew,2013-05-05 12:10:00,
2013-05-05 05:15:00,51.9,-99.9,29.93,East,84,2.3,3.7,-999,0.00,,,0.00,homebrew,2013-05-05 12:15:00,
2013-05-05 05:20:00,51.7,-99.9,29.93,SE,128,2.3,5.2,-999,0.00,,,0.00,homebrew,2013-05-05 12:20:00,
2013-05-05 05:25:00,51.5,-99.9,29.93,NE,46,3.0,5.4,-999,0.00,,,0.00,homebrew,2013-05-05 12:25:00,
2013-05-05 05:30:00,51.4,-99.9,29.93,East,81,2.0,5.7,-999,0.00,,,0.00,homebrew,2013-05-05 12:30:00,
2013-05-05 05:35:00,51.4,-99.9,29.93,ESE,106,1.1,4.0,-999,0.00,,,0.00,homebrew,2013-05-05 12:35:00,
2013-05-05 05:45:00,51.3,-99.9,29.93,NE,39,2.1,4.8,-999,0.00,,,0.00,homebrew,2013-05-05 12:45:00,
2013-05-05 05:50:00,51.2,-99.9,29.93,ENE,57,2.3,5.1,-999,0.00,,,0.00,homebrew,2013-05-05 12:50:00,
2013-05-05 05:55:00,51.1,-99.9,29.93,NNE,31,2.1,4.8,-999,0.00,,,0.00,homebrew,2013-05-05 12:55:00,
2013-05-05 06:00:00,50.9,-99.9,29.93,NE,56,2.6,4.2,-999,0.00,,,0.00,homebrew,2013-05-05 13:00:00,
2013-05-05 06:05:00,50.8,-99.9,29.93,NE,38,2.3,5.8,-999,0.00,,,0.00,homebrew,2013-05-05 13:05:00,
2013-05-05 06:10:00,51.0,-99.9,29.93,NE,50,3.4,4.7,-999,0.00,,,0.00,homebrew,2013-05-05 13:10:00,
2013-05-05 06:15:00,51.2,-99.9,29.93,ENE,69,3.3,6.5,-999,0.00,,,0.00,homebrew,2013-05-05 13:15:00,
2013-05-05 06:20:00,51.3,-99.9,29.93,ENE,67,2.4,5.6,-999,0.00,,,0.00,homebrew,2013-05-05 13:20:00,
2013-05-05 06:25:00,51.3,-99.9,29.93,East,82,3.4,5.0,-999,0.00,,,0.00,homebrew,2013-05-05 13:25:00,
2013-05-05 06:35:00,52.0,-99.9,29.93,ENE,73,2.0,4.0,-999,0.00,,,0.00,homebrew,2013-05-05 13:35:00,
2013-05-05 06:40:00,52.7,-99.9,29.93,East,92,2.8,3.2,-999,0.00,,,0.00,homebrew,2013-05-05 13:40:00,
2013-05-05 06:45:00,53.1,-99.9,29.93,East,80,2.2,4.7,-999,0.00,,,0.00,homebrew,2013-05-05 13:45:00,
2013-05-05 06:50:00,53.6,-99.9,29.93,ENE,67,2.3,3.4,-999,0.00,,,0.00,homebrew,2013-05-05 13:50:00,
2013-05-05 06:55:00,54.5,-99.9,29.93,East,90,3.3,4.8,-999,0.00,,,0.00,homebrew,2013-05-05 13:55:00,
2013-05-05 07:00:00,54.9,-99.9,29.93,East,86,2.8,4.7,-999,0.00,,,0.00,homebrew,2013-05-05 14:00:00,
2013-05-05 07:05:00,55.6,-99.9,29.93,ENE,78,1.9,4.6,-999,0.00,,,0.00,homebrew,2013-05-05 14:05:00,
2013-05-05 07:10:00,56.4,-99.9,29.93,ENE,71,1.6,4.8,-999,0.00,,,0.00,homebrew,2013-05-05 14:10:00,
2013-05-05 07:15:00,57.0,-99.9,29.93,ENE,66,4.4,5.6,-999,0.00,,,0.00,homebrew,2013-05-05 14:15:00,
2013-05-05 07:20:00,56.9,-99.9,29.93,ENE,75,3.1,7.9,-999,0.00,,,0.00,homebrew,2013-05-05 14:20:00,
2013-05-05 07:25:00,57.0,-99.9,29.93,East,82,3.9,5.7,-999,0.00,,,0.00,homebrew,2013-05-05 14:25:00,
2013-05-05 07:30:00,57.1,-99.9,29.93,East,79,3.3,6.3,-999,0.00,,,0.00,homebrew,2013-05-05 14:30:00,
2013-05-05 07:35:00,57.5,-99.9,29.93,ENE,78,3.4,5.3,-999,0.00,,,0.00,homebrew,2013-05-05 14:35:00,
2013-05-05 07:40:00,58.1,-99.9,29.92,ENE,63,3.5,6.5,-999,0.00,,,0.00,homebrew,2013-05-05 14:40:00,
2013-05-05 07:45:00,58.5,-99.9,29.93,ENE,68,2.9,6.5,-999,0.00,,,0.00,homebrew,2013-05-05 14:45:00,
2013-05-05 07:50:00,58.7,-99.9,29.93,ENE,67,1.6,6.0,-999,0.00,,,0.00,homebrew,2013-05-05 14:50:00,
2013-05-05 07:55:00,58.9,-99.9,29.93,ENE,57,2.7,3.3,-999,0.00,,,0.00,homebrew,2013-05-05 14:55:00,
2013-05-05 08:00:00,59.3,-99.9,29.93,ENE,73,2.4,5.5,-999,0.00,,,0.00,homebrew,2013-05-05 15:00:00,
2013-05-05 08:05:00,59.6,-99.9,29.93,East,89,3.5,5.5,-999,0.00,,,0.00,homebrew,2013-05-05 15:05:00,
2013-05-05 08:10:00,59.9,-99.9,29.92,East,84,3.5,6.1,-999,0.00,,,0.00,homebrew,2013-05-05 15:10:00,
2013-05-05 08:15:00,60.2,-99.9,29.92,NE,55,2.5,6.7,-999,0.00,,,0.00,homebrew,2013-05-05 15:15:00,
2013-05-05 08:20:00,61.0,-99.9,29.92,East,87,2.8,5.7,-999,0.00,,,0.00,homebrew,2013-05-05 15:20:00,
2013-05-05 08:25:00,61.5,-99.9,29.92,East,79,3.7,6.3,-999,0.00,,,0.00,homebrew,2013-05-05 15:25:00,
2013-05-05 08:30:00,61.7,-99.9,29.92,East,79,2.4,6.0,-999,0.00,,,0.00,homebrew,2013-05-05 15:30:00,
2013-05-05 08:35:00,61.5,-99.9,29.92,East,98,3.6,5.8,-999,0.00,,,0.00,homebrew,2013-05-05 15:35:00,
2013-05-05 08:40:00,61.8,-99.9,29.92,ENE,74,2.1,6.6,-999,0.00,,,0.00,homebrew,2013-05-05 15:40:00,
2013-05-05 08:45:00,62.6,-99.9,29.92,ESE,102,2.9,4.7,-999,0.00,,,0.00,homebrew,2013-05-05 15:45:00,
2013-05-05 08:50:00,62.1,-99.9,29.92,SE,125,2.4,5.7,-999,0.00,,,0.00,homebrew,2013-05-05 15:50:00,
2013-05-05 08:55:00,62.5,-99.9,29.92,SE,146,0.9,4.6,-999,0.00,,,0.00,homebrew,2013-05-05 15:55:00,
2013-05-05 09:00:00,63.5,-99.9,29.92,SE,141,0.9,3.0,-999,0.00,,,0.00,homebrew,2013-05-05 16:00:00,
2013-05-05 09:05:00,63.9,-99.9,29.92,East,100,2.3,2.3,-999,0.00,,,0.00,homebrew,2013-05-05 16:05:00,
2013-05-05 09:10:00,63.8,-99.9,29.92,SSE,149,0.9,4.5,-999,0.00,,,0.00,homebrew,2013-05-05 16:10:00,
2013-05-05 09:20:00,64.4,-99.9,29.91,SSE,161,1.5,4.0,-999,0.00,,,0.00,homebrew,2013-05-05 16:20:00,
2013-05-05 09:25:00,65.3,-99.9,29.91,East,94,1.4,4.4,-999,0.00,,,0.00,homebrew,2013-05-05 16:25:00,
2013-05-05 09:30:00,67.6,-99.9,29.91,SE,128,1.6,4.2,-999,0.00,,,0.00,homebrew,2013-05-05 16:30:00,
2013-05-05 09:35:00,68.0,-99.9,29.91,ENE,69,2.9,3.4,-999,0.00,,,0.00,homebrew,2013-05-05 16:35:00,
2013-05-05 09:40:00,68.3,-99.9,29.91,East,90,2.1,5.8,-999,0.00,,,0.00,homebrew,2013-05-05 16:40:00,
2013-05-05 09:45:00,68.0,-99.9,29.91,SE,125,1.7,4.7,-999,0.00,,,0.00,homebrew,2013-05-05 16:45:00,
2013-05-05 09:50:00,68.8,-99.9,29.91,East,95,1.7,4.3,-999,0.00,,,0.00,homebrew,2013-05-05 16:50:00,
2013-05-05 09:55:00,69.5,-99.9,29.91,East,95,3.7,4.9,-999,0.00,,,0.00,homebrew,2013-05-05 16:55:00,
2013-05-05 10:00:00,69.3,-99.9,29.91,East,85,2.9,7.0,-999,0.00,,,0.00,homebrew,2013-05-05 17:00:00,
2013-05-05 10:10:00,71.1,-99.9,29.90,South,190,2.5,5.7,-999,0.00,,,0.00,homebrew,2013-05-05 17:10:00,
2013-05-05 10:15:00,69.2,-99.9,29.90,WNW,292,2.8,5.8,-999,0.00,,,0.00,homebrew,2013-05-05 17:15:00,
2013-05-05 10:20:00,69.6,-99.9,29.90,SSW,212,3.6,6.3,-999,0.00,,,0.00,homebrew,2013-05-05 17:20:00,
2013-05-05 10:25:00,69.4,-99.9,29.90,SW,236,2.9,8.0,-999,0.00,,,0.00,homebrew,2013-05-05 17:25:00,
2013-05-05 10:30:00,70.5,-99.9,29.90,WSW,240,1.4,6.7,-999,0.00,,,0.00,homebrew,2013-05-05 17:30:00,
2013-05-05 10:35:00,71.0,-99.9,29.90,WNW,296,3.8,5.7,-999,0.00,,,0.00,homebrew,2013-05-05 17:35:00,
2013-05-05 10:40:00,70.7,-99.9,29.89,West,281,2.0,7.4,-999,0.00,,,0.00,homebrew,2013-05-05 17:40:00,
2013-05-05 10:45:00,70.8,-99.9,29.89,WNW,285,2.4,4.3,-999,0.00,,,0.00,homebrew,2013-05-05 17:45:00,
2013-05-05 10:50:00,71.9,-99.9,29.89,SE,126,2.7,7.0,-999,0.00,,,0.00,homebrew,2013-05-05 17:50:00,
2013-05-05 10:55:00,73.4,-99.9,29.89,SSW,198,2.7,5.4,-999,0.00,,,0.00,homebrew,2013-05-05 17:55:00,
2013-05-05 11:00:00,73.5,-99.9,29.89,SSW,201,1.7,5.7,-999,0.00,,,0.00,homebrew,2013-05-05 18:00:00,
2013-05-05 11:05:00,74.9,-99.9,29.89,West,267,2.2,5.2,-999,0.00,,,0.00,homebrew,2013-05-05 18:05:00,
2013-05-05 11:10:00,74.2,-99.9,29.89,WNW,288,3.9,6.5,-999,0.00,,,0.00,homebrew,2013-05-05 18:10:00,
2013-05-05 11:15:00,74.0,-99.9,29.89,SSE,157,2.5,6.4,-999,0.00,,,0.00,homebrew,2013-05-05 18:15:00,
2013-05-05 11:20:00,74.8,-99.9,29.88,SSW,196,1.4,7.8,-999,0.00,,,0.00,homebrew,2013-05-05 18:20:00,
2013-05-05 11:25:00,74.4,-99.9,29.89,West,272,4.5,8.0,-999,0.00,,,0.00,homebrew,2013-05-05 18:25:00,
2013-05-05 11:30:00,73.3,-99.9,29.88,WSW,254,3.5,10.3,-999,0.00,,,0.00,homebrew,2013-05-05 18:30:00,
2013-05-05 11:35:00,74.1,-99.9,29.88,West,262,3.2,7.6,-999,0.00,,,0.00,homebrew,2013-05-05 18:35:00,
2013-05-05 11:40:00,74.1,-99.9,29.88,West,262,2.7,7.2,-999,0.00,,,0.00,homebrew,2013-05-05 18:40:00,
2013-05-05 11:45:00,74.3,-99.9,29.88,West,265,2.6,5.6,-999,0.00,,,0.00,homebrew,2013-05-05 18:45:00,
2013-05-05 11:50:00,76.3,-99.9,29.88,SSW,207,3.2,9.0,-999,0.00,,,0.00,homebrew,2013-05-05 18:50:00,
2013-05-05 11:55:00,76.8,-99.9,29.87,SW,235,3.2,8.3,-999,0.00,,,0.00,homebrew,2013-05-05 18:55:00,
2013-05-05 12:00:00,76.1,-99.9,29.87,WNW,301,5.3,9.1,-999,0.00,,,0.00,homebrew,2013-05-05 19:00:00,
2013-05-05 12:05:00,76.9,-99.9,29.87,WSW,242,2.8,10.2,-999,0.00,,,0.00,homebrew,2013-05-05 19:05:00,
2013-05-05 12:10:00,76.4,-99.9,29.87,WSW,254,2.1,5.2,-999,0.00,,,0.00,homebrew,2013-05-05 19:10:00,
2013-05-05 12:20:00,77.7,-99.9,29.86,WSW,255,3.4,6.8,-999,0.00,,,0.00,homebrew,2013-05-05 19:20:00,
2013-05-05 12:25:00,77.0,-99.9,29.86,WSW,239,3.3,8.3,-999,0.00,,,0.00,homebrew,2013-05-05 19:25:00,
2013-05-05 12:30:00,77.4,-99.9,29.86,West,270,3.3,8.1,-999,0.00,,,0.00,homebrew,2013-05-05 19:30:00,
2013-05-05 12:35:00,78.3,-99.9,29.86,South,187,1.8,8.4,-999,0.00,,,0.00,homebrew,2013-05-05 19:35:00,
2013-05-05 12:40:00,78.0,-99.9,29.85,West,275,4.4,4.9,-999,0.00,,,0.00,homebrew,2013-05-05 19:40:00,
2013-05-05 12:45:00,78.3,-99.9,29.85,SW,226,2.7,11.8,-999,0.00,,,0.00,homebrew,2013-05-05 19:45:00,
2013-05-05 12:55:00,79.4,-99.9,29.85,SW,232,2.7,6.6,-999,0.00,,,0.00,homebrew,2013-05-05 19:55:00,
2013-05-05 13:00:00,78.1,-99.9,29.85,WSW,244,3.6,7.0,-999,0.00,,,0.00,homebrew,2013-05-05 20:00:00,
2013-05-05 13:05:00,77.7,-99.9,29.85,West,261,3.7,8.6,-999,0.00,,,0.00,homebrew,2013-05-05 20:05:00,
2013-05-05 13:10:00,78.1,-99.9,29.84,WSW,249,3.8,9.3,-999,0.00,,,0.00,homebrew,2013-05-05 20:10:00,
2013-05-05 13:15:00,79.2,-99.9,29.84,South,191,2.2,9.3,-999,0.00,,,0.00,homebrew,2013-05-05 20:15:00,
2013-05-05 13:20:00,79.8,-99.9,29.84,WSW,248,3.1,6.4,-999,0.00,,,0.00,homebrew,2013-05-05 20:20:00,
2013-05-05 13:25:00,80.4,-99.9,29.83,SW,219,2.8,8.2,-999,0.00,,,0.00,homebrew,2013-05-05 20:25:00,
2013-05-05 13:30:00,80.7,-99.9,29.83,WSW,253,2.0,8.0,-999,0.00,,,0.00,homebrew,2013-05-05 20:30:00,
2013-05-05 13:35:00,81.3,-99.9,29.83,SSW,211,2.8,9.8,-999,0.00,,,0.00,homebrew,2013-05-05 20:35:00,
2013-05-05 13:45:00,81.7,-99.9,29.83,SSW,206,3.9,8.2,-999,0.00,,,0.00,homebrew,2013-05-05 20:45:00,
2013-05-05 13:50:00,80.9,-99.9,29.83,SW,234,3.7,11.1,-999,0.00,,,0.00,homebrew,2013-05-05 20:50:00,
2013-05-05 13:55:00,80.9,-99.9,29.82,WNW,282,5.9,10.0,-999,0.00,,,0.00,homebrew,2013-05-05 20:55:00,
2013-05-05 14:00:00,80.3,-99.9,29.82,SW,222,4.6,11.0,-999,0.00,,,0.00,homebrew,2013-05-05 21:00:00,
2013-05-05 14:05:00,81.0,-99.9,29.82,West,266,4.9,9.1,-999,0.00,,,0.00,homebrew,2013-05-05 21:05:00,
2013-05-05 14:10:00,81.2,-99.9,29.82,SSW,201,2.9,9.8,-999,0.00,,,0.00,homebrew,2013-05-05 21:10:00,
2013-05-05 14:15:00,82.4,-99.9,29.82,South,170,2.0,8.1,-999,0.00,,,0.00,homebrew,2013-05-05 21:15:00,
2013-05-05 14:20:00,82.6,-99.9,29.82,South,187,2.5,5.4,-999,0.00,,,0.00,homebrew,2013-05-05 21:20:00,
2013-05-05 14:25:00,83.0,-99.9,29.81,WSW,255,4.0,7.3,-999,0.00,,,0.00,homebrew,2013-05-05 21:25:00,
2013-05-05 14:35:00,83.0,-99.9,29.81,SSW,209,2.4,9.3,-999,0.00,,,0.00,homebrew,2013-05-05 21:35:00,
2013-05-05 14:40:00,84.3,-99.9,29.81,South,189,1.9,9.6,-999,0.00,,,0.00,homebrew,2013-05-05 21:40:00,
2013-05-05 14:45:00,84.5,-99.9,29.81,SW,222,2.9,6.2,-999,0.00,,,0.00,homebrew,2013-05-05 21:45:00,
2013-05-05 14:50:00,82.8,-99.9,29.80,West,267,4.1,9.4,-999,0.00,,,0.00,homebrew,2013-05-05 21:50:00,
2013-05-05 14:55:00,82.7,-99.9,29.80,WSW,250,3.1,9.7,-999,0.00,,,0.00,homebrew,2013-05-05 21:55:00,
2013-05-05 15:00:00,82.7,-99.9,29.80,SW,228,3.1,9.6,-999,0.00,,,0.00,homebrew,2013-05-05 22:00:00,
2013-05-05 15:05:00,83.2,-99.9,29.79,WSW,244,3.4,8.0,-999,0.00,,,0.00,homebrew,2013-05-05 22:05:00,
2013-05-05 15:10:00,82.7,-99.9,29.79,WSW,251,4.0,8.1,-999,0.00,,,0.00,homebrew,2013-05-05 22:10:00,
2013-05-05 15:15:00,81.9,-99.9,29.79,WSW,244,3.8,10.3,-999,0.00,,,0.00,homebrew,2013-05-05 22:15:00,
2013-05-05 15:25:00,81.7,-99.9,29.79,WSW,249,4.5,7.5,-999,0.00,,,0.00,homebrew,2013-05-05 22:25:00,
2013-05-05 15:30:00,81.3,-99.9,29.79,WSW,243,3.9,9.0,-999,0.00,,,0.00,homebrew,2013-05-05 22:30:00,
2013-05-05 15:35:00,81.6,-99.9,29.78,WSW,237,3.3,9.3,-999,0.00,,,0.00,homebrew,2013-05-05 22:35:00,
2013-05-05 15:40:00,82.0,-99.9,29.78,WSW,252,3.5,10.1,-999,0.00,,,0.00,homebrew,2013-05-05 22:40:00,
2013-05-05 15:45:00,83.2,-99.9,29.78,West,260,3.7,8.8,-999,0.00,,,0.00,homebrew,2013-05-05 22:45:00,
2013-05-05 15:50:00,84.1,-99.9,29.78,WSW,251,4.1,8.5,-999,0.00,,,0.00,homebrew,2013-05-05 22:50:00,
2013-05-05 15:55:00,84.6,-99.9,29.78,SSW,195,1.6,8.5,-999,0.00,,,0.00,homebrew,2013-05-05 22:55:00,
2013-05-05 16:00:00,84.5,-99.9,29.78,West,260,3.2,5.3,-999,0.00,,,0.00,homebrew,2013-05-05 23:00:00,
2013-05-05 16:05:00,84.4,-99.9,29.77,WSW,241,2.3,6.6,-999,0.00,,,0.00,homebrew,2013-05-05 23:05:00,
2013-05-05 16:15:00,84.3,-99.9,29.77,SW,214,3.8,9.6,-999,0.00,,,0.00,homebrew,2013-05-05 23:15:00,
2013-05-05 16:20:00,84.0,-99.9,29.77,WSW,241,5.1,9.8,-999,0.00,,,0.00,homebrew,2013-05-05 23:20:00,
2013-05-05 16:25:00,83.2,-99.9,29.76,WSW,256,4.8,10.7,-999,0.00,,,0.00,homebrew,2013-05-05 23:25:00,
2013-05-05 16:30:00,83.2,-99.9,29.76,WNW,299,5.1,11.4,-999,0.00,,,0.00,homebrew,2013-05-05 23:30:00,
2013-05-05 16:35:00,82.8,-99.9,29.76,West,263,3.8,9.6,-999,0.00,,,0.00,homebrew,2013-05-05 23:35:00,
2013-05-05 16:40:00,83.4,-99.9,29.76,WSW,248,5.0,11.9,-999,0.00,,,0.00,homebrew,2013-05-05 23:40:00,
2013-05-05 16:45:00,82.8,-99.9,29.76,West,259,5.1,10.5,-999,0.00,,,0.00,homebrew,2013-05-05 23:45:00,
2013-05-05 16:50:00,82.5,-99.9,29.75,West,261,4.7,12.8,-999,0.00,,,0.00,homebrew,2013-05-05 23:50:00,
2013-05-05 16:55:00,83.0,-99.9,29.75,West,264,3.8,15.0,-999,0.00,,,0.00,homebrew,2013-05-05 23:55:00,
2013-05-05 17:00:00,83.9,-99.9,29.75,SW,220,2.3,10.1,-999,0.00,,,0.00,homebrew,2013-05-06 00:00:00,
2013-05-05 17:05:00,84.4,-99.9,29.75,WSW,249,3.0,7.7,-999,0.00,,,0.00,homebrew,2013-05-06 00:05:00,
2013-05-05 17:10:00,84.1,-99.9,29.75,WSW,246,3.1,8.7,-999,0.00,,,0.00,homebrew,2013-05-06 00:10:00,
2013-05-05 17:20:00,83.5,-99.9,29.75,SW,234,2.6,9.8,-999,0.00,,,0.00,homebrew,2013-05-06 00:20:00,
2013-05-05 17:25:00,84.0,-99.9,29.75,SW,234,2.6,8.5,-999,0.00,,,0.00,homebrew,2013-05-06 00:25:00,
2013-05-05 17:30:00,83.5,-99.9,29.74,WSW,251,3.5,8.3,-999,0.00,,,0.00,homebrew,2013-05-06 00:30:00,
2013-05-05 17:35:00,83.5,-99.9,29.74,SW,234,2.5,7.5,-999,0.00,,,0.00,homebrew,2013-05-06 00:35:00,
2013-05-05 17:40:00,83.3,-99.9,29.74,WSW,257,3.0,7.4,-999,0.00,,,0.00,homebrew,2013-05-06 00:40:00,
2013-05-05 17:50:00,82.2,-99.9,29.74,WSW,253,3.7,6.9,-999,0.00,,,0.00,homebrew,2013-05-06 00:50:00,
2013-05-05 17:55:00,82.1,-99.9,29.74,West,259,3.3,8.3,-999,0.00,,,0.00,homebrew,2013-05-06 00:55:00,
2013-05-05 18:00:00,82.1,-99.9,29.74,SSW,206,1.4,7.8,-999,0.00,,,0.00,homebrew,2013-05-06 01:00:00,
2013-05-05 18:10:00,81.4,-99.9,29.74,SW,229,2.6,7.0,-999,0.00,,,0.00,homebrew,2013-05-06 01:10:00,
2013-05-05 18:15:00,80.6,-99.9,29.74,West,263,1.7,5.8,-999,0.00,,,0.00,homebrew,2013-05-06 01:15:00,
2013-05-05 18:25:00,80.2,-99.9,29.74,South,185,1.6,11.2,-999,0.00,,,0.00,homebrew,2013-05-06 01:25:00,
2013-05-05 18:30:00,80.0,-99.9,29.74,South,183,2.5,4.3,-999,0.00,,,0.00,homebrew,2013-05-06 01:30:00,
2013-05-05 18:35:00,79.8,-99.9,29.73,South,169,1.4,9.8,-999,0.00,,,0.00,homebrew,2013-05-06 01:35:00,
2013-05-05 18:40:00,79.6,-99.9,29.73,SSE,153,0.4,3.4,-999,0.00,,,0.00,homebrew,2013-05-06 01:40:00,
2013-05-05 18:45:00,79.2,-99.9,29.73,SSE,151,0.5,3.4,-999,0.00,,,0.00,homebrew,2013-05-06 01:45:00,
2013-05-05 18:50:00,78.9,-99.9,29.73,ESE,121,1.4,3.3,-999,0.00,,,0.00,homebrew,2013-05-06 01:50:00,
2013-05-05 19:00:00,78.4,-99.9,29.73,SE,130,0.9,2.7,-999,0.00,,,0.00,homebrew,2013-05-06 02:00:00,
2013-05-05 19:05:00,78.1,-99.9,29.74,SSE,163,0.5,4.3,-999,0.00,,,0.00,homebrew,2013-05-06 02:05:00,
2013-05-05 19:10:00,77.9,-99.9,29.74,SW,222,0.9,2.5,-999,0.00,,,0.00,homebrew,2013-05-06 02:10:00,
2013-05-05 19:15:00,77.8,-99.9,29.74,ESE,116,0.5,2.9,-999,0.00,,,0.00,homebrew,2013-05-06 02:15:00,
2013-05-05 19:20:00,77.3,-99.9,29.74,WSW,252,0.7,2.6,-999,0.00,,,0.00,homebrew,2013-05-06 02:20:00,
2013-05-05 19:25:00,77.0,-99.9,29.74,WNW,294,0.6,2.4,-999,0.00,,,0.00,homebrew,2013-05-06 02:25:00,
2013-05-05 19:30:00,77.1,-99.9,29.74,ENE,70,0.0,2.4,-999,0.00,,,0.00,homebrew,2013-05-06 02:30:00,
2013-05-05 19:35:00,76.9,-99.9,29.74,NE,53,0.1,0.4,-999,0.00,,,0.00,homebrew,2013-05-06 02:35:00,
2013-05-05 19:40:00,76.4,-99.9,29.74,NE,49,0.0,1.1,-999,0.00,,,0.00,homebrew,2013-05-06 02:40:00,
2013-05-05 19:45:00,76.1,-99.9,29.74,NE,49,0.0,0.0,-999,0.00,,,0.00,homebrew,2013-05-06 02:45:00,
2013-05-05 19:50:00,75.9,-99.9,29.74,NE,49,0.0,0.0,-999,0.00,,,0.00,homebrew,2013-05-06 02:50:00,
2013-05-05 19:55:00,75.5,-99.9,29.74,NE,49,0.0,0.0,-999,0.00,,,0.00,homebrew,2013-05-06 02:55:00,
2013-05-05 20:05:00,74.6,-99.9,29.74,NE,48,0.0,0.0,-999,0.00,,,0.00,homebrew,2013-05-06 03:05:00,
2013-05-05 20:10:00,73.8,-99.9,29.74,SW,233,0.1,1.5,-999,0.00,,,0.00,homebrew,2013-05-06 03:10:00,
2013-05-05 20:15:00,73.6,-99.9,29.74,ENE,62,0.0,1.0,-999,0.00,,,0.00,homebrew,2013-05-06 03:15:00,
2013-05-05 20:20:00,73.5,-99.9,29.74,WNW,283,0.5,0.9,-999,0.00,,,0.00,homebrew,2013-05-06 03:20:00,
2013-05-05 20:25:00,73.3,-99.9,29.74,NNW,329,0.0,2.6,-999,0.00,,,0.00,homebrew,2013-05-06 03:25:00,
2013-05-05 20:30:00,72.9,-99.9,29.74,NW,313,0.1,0.0,-999,0.00,,,0.00,homebrew,2013-05-06 03:30:00,
2013-05-05 20:35:00,72.3,-99.9,29.74,NW,312,0.0,1.1,-999,0.00,,,0.00,homebrew,2013-05-06 03:35:00,
2013-05-05 20:40:00,71.9,-99.9,29.75,NW,312,0.0,0.0,-999,0.00,,,0.00,homebrew,2013-05-06 03:40:00,
2013-05-05 20:45:00,71.8,-99.9,29.75,NW,312,0.0,0.0,-999,0.00,,,0.00,homebrew,2013-05-06 03:45:00,
2013-05-05 20:50:00,71.5,-99.9,29.75,NW,312,0.0,0.0,-999,0.00,,,0.00,homebrew,2013-05-06 03:50:00,
2013-05-05 20:55:00,71.0,-99.9,29.75,NW,324,0.1,0.0,-999,0.00,,,0.00,homebrew,2013-05-06 03:55:00,
2013-05-05 21:00:00,70.9,-99.9,29.75,NW,326,0.0,0.8,-999,0.00,,,0.00,homebrew,2013-05-06 04:00:00,
2013-05-05 21:05:00,70.9,-99.9,29.75,NW,326,0.0,0.0,-999,0.00,,,0.00,homebrew,2013-05-06 04:05:00,
2013-05-05 21:10:00,70.9,-99.9,29.75,NW,326,0.0,0.0,-999,0.00,,,0.00,homebrew,2013-05-06 04:10:00,
2013-05-05 21:15:00,70.7,-99.9,29.75,NW,326,0.0,0.0,-999,0.00,,,0.00,homebrew,2013-05-06 04:15:00,
2013-05-05 21:20:00,70.5,-99.9,29.75,NW,326,0.0,0.0,-999,0.00,,,0.00,homebrew,2013-05-06 04:20:00,
2013-05-05 21:25:00,70.5,-99.9,29.75,NW,326,0.0,0.0,-999,0.00,,,0.00,homebrew,2013-05-06 04:25:00,
2013-05-05 21:30:00,70.5,-99.9,29.75,NW,326,0.0,0.0,-999,0.00,,,0.00,homebrew,2013-05-06 04:30:00,
2013-05-05 21:35:00,70.2,-99.9,29.75,ENE,72,0.1,0.0,-999,0.00,,,0.00,homebrew,2013-05-06 04:35:00,
2013-05-05 21:40:00,70.1,-99.9,29.75,NNE,16,0.0,0.7,-999,0.00,,,0.00,homebrew,2013-05-06 04:40:00,
2013-05-05 21:45:00,70.1,-99.9,29.76,NNE,16,0.0,0.0,-999,0.00,,,0.00,homebrew,2013-05-06 04:45:00,
2013-05-05 21:55:00,69.8,-99.9,29.76,NNE,16,0.0,0.0,-999,0.00,,,0.00,homebrew,2013-05-06 04:55:00,
2013-05-05 22:00:00,69.6,-99.9,29.76,NNE,16,0.0,0.0,-999,0.00,,,0.00,homebrew,2013-05-06 05:00:00,
2013-05-05 22:05:00,68.9,-99.9,29.76,NNE,16,0.0,0.0,-999,0.00,,,0.00,homebrew,2013-05-06 05:05:00,
2013-05-05 22:10:00,68.1,-99.9,29.76,NNE,16,0.0,0.0,-999,0.00,,,0.00,homebrew,2013-05-06 05:10:00,
2013-05-05 22:15:00,67.8,-99.9,29.76,NNE,16,0.0,0.0,-999,0.00,,,0.00,homebrew,2013-05-06 05:15:00,
2013-05-05 22:20:00,67.8,-99.9,29.76,NNE,28,0.7,0.0,-999,0.00,,,0.00,homebrew,2013-05-06 05:20:00,
2013-05-05 22:25:00,67.8,-99.9,29.76,NE,40,0.8,2.9,-999,0.00,,,0.00,homebrew,2013-05-06 05:25:00,
2013-05-05 22:30:00,67.8,-99.9,29.76,NE,47,0.4,2.7,-999,0.00,,,0.00,homebrew,2013-05-06 05:30:00,
2013-05-05 22:35:00,68.0,-99.9,29.76,ENE,64,1.4,3.2,-999,0.00,,,0.00,homebrew,2013-05-06 05:35:00,
2013-05-05 22:40:00,68.0,-99.9,29.76,NE,54,0.8,3.1,-999,0.00,,,0.00,homebrew,2013-05-06 05:40:00,
2013-05-05 22:45:00,67.4,-99.9,29.76,NNE,19,0.3,3.0,-999,0.00,,,0.00,homebrew,2013-05-06 05:45:00,
2013-05-05 22:50:00,67.0,-99.9,29.76,ENE,68,1.0,1.3,-999,0.00,,,0.00,homebrew,2013-05-06 05:50:00,
2013-05-05 22:55:00,67.0,-99.9,29.76,ENE,62,1.3,3.6,-999,0.00,,,0.00,homebrew,2013-05-06 05:55:00,
2013-05-05 23:05:00,66.9,-99.9,29.76,ENE,69,1.3,3.7,-999,0.00,,,0.00,homebrew,2013-05-06 06:05:00,
2013-05-05 23:10:00,66.7,-99.9,29.77,ENE,76,2.5,3.4,-999,0.00,,,0.00,homebrew,2013-05-06 06:10:00,
2013-05-05 23:20:00,66.2,-99.9,29.77,ENE,71,2.7,4.4,-999,0.00,,,0.00,homebrew,2013-05-06 06:20:00,
2013-05-05 23:25:00,66.1,-99.9,29.77,ENE,61,2.6,5.1,-999,0.00,,,0.00,homebrew,2013-05-06 06:25:00,
2013-05-05 23:30:00,65.8,-99.9,29.77,ENE,58,2.6,3.9,-999,0.00,,,0.00,homebrew,2013-05-06 06:30:00,
2013-05-05 23:35:00,65.6,-99.9,29.77,ENE,57,2.2,5.5,-999,0.00,,,0.00,homebrew,2013-05-06 06:35:00,
2013-05-05 23:40:00,65.4,-99.9,29.77,NE,48,2.0,3.7,-999,0.00,,,0.00,homebrew,2013-05-06 06:40:00,
2013-05-05 23:45:00,65.2,-99.9,29.77,ENE,67,2.0,3.8,-999,0.00,,,0.00,homebrew,2013-05-06 06:45:00,
2013-05-05 23:55:00,64.8,-99.9,29.77,ENE,67,2.3,3.4,-999,0.00,,,0.00,homebrew,2013-05-06 06:55:00,